Location: Nitra
(0.0000°N, 18.0833°E)
Time: 20:32:29
(UTC+02:00)

A-11 Canister half - Pass Details

Date: 03 April 2023
Orbit: 1526 x 1682 km, 47.3° (Epoch: 08 June)

Event Time Altitude Azimuth Distance (km) Brightness Sun altitude
Rises 11:01:42 0° 215° (SW) 4,834 11.4 62.2°
Reaches altitude 10° 11:04:48 10° 212° (SSW) 3,866 11.0 63.0°
Maximum altitude 11:14:42 71° 129° (SE) 1,739 11.1 65.4°
Drops below altitude 10° 11:24:46 10° 47° (NE) 3,934 11.6 67.8°
Sets 11:27:57 0° 45° (NE) 4,922 11.9 68.6°
